Regional Weather Roundup
Issued by NWS

Home | Current Version | Previous Version | Graphics & Text | Print | Product List | Glossary On
Versions: 1 2 3 4 5 6 7 8 9 10 11 12 13 14 15 16 17 18 19 20 21 22 23 24 25 26 27 28 29 30 31 32 33 34 35 36 37 38 39 40 41 42 43 44 45 46 47 48 49 50
000
ASUS43 KMPX 011101
RWRMN
WEATHER ROUNDUP FOR MINNESOTA
NATIONAL WEATHER SERVICE TWIN CITIES/CHANHASSEN MN
500 AM CST WED MAR 01 2017


NOTE: "FAIR" INDICATES FEW OR NO CLOUDS BELOW 12,000 FEET WITH NO
SIGNIFICANT WEATHER AND/OR OBSTRUCTIONS TO VISIBILITY. N/A MEANS
CURRENT SKY AND/OR WEATHER CONDITIONS ARE NOT AVAILABLE.

MNZ060>063-068>070-011200-
   Twin Cities Metro

CITY           SKY/WX    TMP DP  RH WIND       PRES   REMARKS
TWIN CITIES    LGT SNOW  28  22  78 N17G24    29.76R WCI  16
ST PAUL        LGT SNOW  28  24  85 N14G24    29.76R FOG     WCI  17
CRYSTAL        LGT SNOW  27  21  78 N14       29.77R WCI  16
BLAINE         FLURRIES  28  25  86 N14G20    29.77R WCI  17
LAKEVILLE      LGT SNOW  27  25  93 N13       29.74R WCI  16
EDEN PRAIRIE   LGT SNOW  28  23  81 N10       29.75R VSB 1   WCI  19
SOUTH ST PAUL  LGT SNOW  28  24  84 N14G20    29.74R WCI  17
LAKE ELMO      LGT SNOW  28  27  93 N12G21    29.74R WCI  18
$$
MNZ001>005-007-008-013>017-022>024-027-028-011200-
   Northwest Minnesota

CITY           SKY/WX    TMP DP  RH WIND       PRES   REMARKS
BEMIDJI        CLOUDY    15   8  72 N3        29.86R
HALLOCK        MOCLDY     9   1  72 N7        29.96R WCI  -3
ROSEAU         CLOUDY    10   3  72 CALM      29.92S
WARROAD        CLOUDY    10   3  72 NE6       29.93S WCI   1
THIEF RVR FALL   N/A    N/A N/A N/A MISG        N/A
CROOKSTON      CLOUDY    10   7  85 N9        29.95R WCI  -2
FOSSTON        PTCLDY    14   9  79 N3        29.89R
DETROIT LAKES  CLOUDY    23  21  93 NW6       29.87R WCI  16
MOORHEAD       CLOUDY    16  10  79 N9        29.93R WCI   4
PARK RAPIDS    CLOUDY    21  12  68 N6        29.83R WCI  13
MAHNOMEN       FAIR      19  14  79 N6        29.88R WCI  11
$$
MNZ006-009>011-018-025>026-011200-
   North Central Minnesota

CITY           SKY/WX    TMP DP  RH WIND       PRES   REMARKS
BAUDETTE       CLOUDY     5  -1  76 N3        29.91R
FLAG ISLAND    CLOUDY    10   1  67 CALM      29.93S
INTL FALLS     MOCLDY    10   0  63 NE6       29.90S WCI   0
WASKISH        PTCLDY    12   7  79 NE6       29.89R WCI   3
BIG FORK       CLOUDY    16   3  57 CALM      29.86R
LONGVILLE      CLOUDY    21  16  79 N5        29.83R WCI  15
GRAND RAPIDS   MOCLDY    18   8  65 NE6       29.85R WCI  10
CRANE LAKE     CLOUDY    10   1  67 CALM      29.91S
ORR            CLOUDY    10   1  67 CALM      29.84S
COOK           CLOUDY    12   3  67 N3        29.86R
WALKER         PTSUNNY   18  11  74 N3        29.84R
$$
MNZ012-019>021-037-011200-
   Northeast Minnesota

CITY           SKY/WX    TMP DP  RH WIND       PRES   REMARKS
DULUTH         CLOUDY    20  13  74 N8        29.78F WCI  10
ELY            CLOUDY    10   3  72 NE3       29.84R
HIBBING        CLOUDY    15   4  61 N6        29.83R WCI   6
EVELETH        CLOUDY    15   2  57 N6        29.83S WCI   6
DULUTH HARBOR  CLOUDY    27  19  74 NE17G24   29.84S WCI  14
TWO HARBORS    CLOUDY    21  12  68 N3        29.80S
SILVER BAY     CLOUDY    16   7  67 N3        29.81S
GRAND MARAIS     N/A     17   2  51 E3        29.87R
G MARAIS ARPRT CLOUDY     7  -4  61 N15       29.77R WCI -11
$$
MNZ029>031-032-039>041-046>048-054>057-064-011200-
   West Central Minnesota

CITY           SKY/WX    TMP DP  RH WIND       PRES   REMARKS
FERGUS FALLS   PTCLDY    21  21 100 N9        29.92R WCI  11
WHEATON        PTCLDY    19  16  86 NW9       29.93R WCI   9
MORRIS         CLOUDY    25  23  93 NW14      29.86R WCI  13
ALEXANDRIA     PTCLDY    25  19  78 N7        29.84R WCI  17
ELBOW LAKE     FAIR      22  21  96 W8        29.87R WCI  12
WADENA         CLOUDY    21  16  79 N6        29.83R WCI  14
GLENWOOD       CLOUDY    27  23  86 NW9       29.83R WCI  17
APPLETON       PTCLDY    25  21  86 NW10G18   29.87R WCI  15
BENSON         CLOUDY    30  21  69 N8        29.86R WCI  23
ORTONVILLE     CLOUDY    21  18  86 NW16      29.87R WCI   7
MADISON        CLOUDY    27  21  80 NW14      29.88R WCI  15
WILLMAR        CLOUDY    32  27  80 N8        29.83R WCI  25
$$
MNZ033>034-036-042>043-049>051-058-059-011200-
   Central Minnesota

CITY           SKY/WX    TMP DP  RH WIND       PRES   REMARKS
ST CLOUD       CLOUDY    28  26  92 N9        29.80R WCI  19
SAUK CENTRE    CLOUDY    28  24  83 NW7       29.82R WCI  21
PAYNESVILLE    CLOUDY    30  28  92 N12       29.81R WCI  20
AITKIN         CLOUDY    27  18  69 N7        29.80R WCI  19
PINE RIVER     CLOUDY    25  19  80 N7        29.86R WCI  17
BRAINERD       CLOUDY    26  20  77 N6        29.82R WCI  19
STAPLES        CLOUDY    25  19  80 N7        29.83R WCI  17
LONG PRAIRIE   CLOUDY    28  23  80 W7        29.82R WCI  21
LITTLE FALLS   CLOUDY    28  23  80 N5        29.82R WCI  23
LITCHFIELD     CLOUDY    30  27  86 N10       29.80R WCI  21
BUFFALO        CLOUDY    28  24  82 N8        29.80R WCI  20
MAPLE LAKE     CLOUDY    30  27  89 N10       29.80R WCI  21
HUTCHINSON     CLOUDY    31  28  88 N12G20    29.79R WCI  22
$$
MNZ037-044-045-052-053-011200-
   East Central Minnesota

CITY           SKY/WX    TMP DP  RH WIND       PRES   REMARKS
PRINCETON      CLOUDY    28  25  86 N10       29.81R WCI  19
MORA           CLOUDY    27  23  86 N3        29.81R
CAMBRIDGE      CLOUDY    28  19  69 N8        29.78R WCI  20
RUSH CITY      CLOUDY    25  21  85 N12       29.79R WCI  15
MOOSE LAKE     CLOUDY    25  19  80 N8        29.79R WCI  16
HINCKLEY       CLOUDY    27  23  86 N9G18     29.79R WCI  17
CLOQUET        CLOUDY    21  14  73 N6        29.79S WCI  14
MCGREGOR       CLOUDY    23  16  74 N7        29.81R WCI  15
$$
MNZ071>073-080-081-089-090-097-098-011200-
   Southwest Minnesota

CITY           SKY/WX    TMP DP  RH WIND       PRES   REMARKS
MONTEVIDEO     CLOUDY    28  27  93 N12       29.86R WCI  18
GRANITE FALLS  CLOUDY    31  28  89 NW14      29.85R WCI  21
CANBY          CLOUDY    25  22  89 W12       29.87R WCI  14
MARSHALL       CLOUDY    25  23  92 NW16      29.84R WCI  12
REDWOOD FALLS  CLOUDY    32  26  78 N10G17    29.80R WCI  24
OLIVIA         CLOUDY    32  28  86 N10G16    29.81R WCI  24
PIPESTONE      CLOUDY    27  21  80 N10       29.82R WCI  17
WINDOM         CLEAR     30  28  93 NW18      29.77R WCI  18
WORTHINGTON    FLURRIES  28  26  92 NW20      29.79R WCI  15
JACKSON        CLOUDY    30  28  93 N10G16    29.76R WCI  21
TRACY          CLOUDY    28  26  96 NW13      29.82R WCI  17
SLAYTON        CLOUDY    25  24  95 NW14      29.81R WCI  13
$$
MNZ065>067-074>077-082>085-091>093-011200-
   South Central Minnesota

CITY           SKY/WX    TMP DP  RH WIND       PRES   REMARKS
MANKATO        LGT SNOW  29  26  89 N13       29.76R FOG     WCI  19
NEW ULM        CLOUDY    28  25  86 N8        29.78R WCI  20
ST JAMES       CLOUDY    30  27  86 N15       29.78R WCI  19
FAIRMONT       FLURRIES  30  27  88 N21       29.75R WCI  17
GLENCOE        CLOUDY    30  28  90 N9G17     29.78R WCI  22
FARIBAULT      LGT SNOW  28  27  93 NW9       29.73R WCI  20
WASECA         LGT SNOW  30  28  93 NW16      29.74R VSB 1   WCI  19
ALBERT LEA     MIX PCPN  30  30 100 NW13      29.69R WCI  20
$$
MNZ078>079-086>088-094>096-011200-
   Southeast Minnesota

CITY           SKY/WX    TMP DP  RH WIND       PRES   REMARKS
ROCHESTER      LGT SNOW  30  29  96 NW17      29.65R VSB 3/4 WCI  18
RED WING       LGT SNOW  30  27  86 N8        29.70R WCI  23
STANTON        LGT SNOW  30  27  88 N13G21    29.72R WCI  20
WINONA         LGT SNOW  34  32  93 NW9       29.64R WCI  26
AUSTIN         LGT SNOW  30  28  93 N15G22    29.67R WCI  19
PRESTON        LGT SNOW  30  29  96 N10       29.62R WCI  21
$$
ABBREVIATIONS USED IN REMARKS
   TC - TEMPERATURES IN CELSIUS
  WCI - WIND CHILL INDEX
   HX - HEAT INDEX
  VSB - VISIBILITY
$$




USA.gov is the U.S. government's official web portal to all federal, state and local government web resources and services.